This is the latest recevied weather packets stored in our database for station/object KF4UQS-14. If no packets are shown the sender has not sent any weather packets the latest 1 day(s).
| Time | Temp. | Humidity | Pressure | Rain* | Wind** | Luminosity | Snow |
|---|---|---|---|---|---|---|---|
| 1777993659 | 23.89° C | 52% | 1017.2 hPa | 0 mm | 3.13 m/s, 202° | 685 W/m² | - |
| 1777993356 | 23.89° C | 51% | 1017.4 hPa | 0 mm | 3.58 m/s, 221° | 675 W/m² | - |
| 1777993055 | 24.44° C | 50% | 1017.5 hPa | 0 mm | 3.58 m/s, 196° | 660 W/m² | - |
| 1777992754 | 23.89° C | 52% | 1017.4 hPa | 0 mm | 3.58 m/s, 180° | 656 W/m² | - |
| 1777992451 | 23.33° C | 53% | 1017.3 hPa | 0 mm | 2.68 m/s, 212° | 645 W/m² | - |
| 1777992150 | 23.89° C | 53% | 1017.3 hPa | 0 mm | 1.79 m/s, 222° | 634 W/m² | - |
| 1777991846 | 23.33° C | 52% | 1017.2 hPa | 0 mm | 4.47 m/s, 185° | 624 W/m² | - |
| 1777991544 | 23.33° C | 54% | 1017.2 hPa | 0 mm | 3.13 m/s, 197° | 612 W/m² | - |
| 1777991240 | 23.33° C | 53% | 1017.4 hPa | 0 mm | 3.13 m/s, 211° | 600 W/m² | - |
| 1777990938 | 23.89° C | 53% | 1017.3 hPa | 0 mm | 2.68 m/s, 200° | 589 W/m² | - |
| 1777990635 | 22.78° C | 55% | 1017.3 hPa | 0 mm | 0.89 m/s, 165° | 576 W/m² | - |
| 1777990332 | 22.78° C | 54% | 1017.4 hPa | 0 mm | 3.58 m/s, 209° | 563 W/m² | - |
| 1777990028 | 22.78° C | 55% | 1017.3 hPa | 0 mm | 3.13 m/s, 222° | 145 W/m² | - |
| 1777989726 | 22.22° C | 55% | 1017.3 hPa | 0 mm | 4.47 m/s, 211° | 70 W/m² | - |
| 1777989422 | 22.22° C | 57% | 1017.3 hPa | 0 mm | 4.02 m/s, 187° | 69 W/m² | - |
| 1777989118 | 22.22° C | 57% | 1017.4 hPa | 0 mm | 3.13 m/s, 205° | 68 W/m² | - |
| 1777988814 | 21.67° C | 58% | 1017.4 hPa | 0 mm | 3.58 m/s, 190° | 68 W/m² | - |
| 1777988512 | 21.67° C | 58% | 1017.5 hPa | 0 mm | 2.68 m/s, 203° | 67 W/m² | - |
| 1777988208 | 21.67° C | 59% | 1017.6 hPa | 0 mm | 1.34 m/s, 159° | 67 W/m² | - |
| 1777987904 | 21.11° C | 59% | 1017.6 hPa | 0 mm | 2.68 m/s, 224° | 66 W/m² | - |
| 1777987601 | 21.11° C | 60% | 1017.4 hPa | 0 mm | 4.47 m/s, 217° | 66 W/m² | - |
| 1777987298 | 21.11° C | 61% | 1017.5 hPa | 0 mm | 2.24 m/s, 225° | 66 W/m² | - |
| 1777986995 | 21.11° C | 62% | 1017.4 hPa | 0 mm | 3.58 m/s, 187° | 64 W/m² | - |
| 1777986693 | 20.56° C | 64% | 1017.7 hPa | 0 mm | 1.34 m/s, 186° | 63 W/m² | - |
| 1777986391 | 20° C | 65% | 1017.7 hPa | 0 mm | 1.34 m/s, 27° | 62 W/m² | - |
* Rain latest hour (hover to see other rain measurements)
** Current wind speed in m/s (hover to see current wind gust speed)